Content
SEND FEEDBACK

Daily
Averages
Monthly
Summary
United States of America

ONEONTA, ALABAMA


Home > North America > United States > Alabama
Elevation: 1162 feet     Latitude: 33 57N     Longitude: 086 29W

WEATHER
 
SELECT A DAY
Number of Records: 441,071;   Date Range: 1/1/95 - 10/21/14
 
SHARE

PRINT THIS DATA

[ ← Previous Day ]
WEATHER ALMANAC - FEBRUARY 13, 2013
[ Next Day → ]
[ °C ]   °F
Weather ElementAverageHighLow
Temperature43.6 °F48.2 °F (1:15 pm)33.8 °F (8:35 pm)
Dewpoint39 °F44.6 °F (6:55 am)30.2 °F (8:35 pm)
Humidity84.2 %93 % (12:35 am)70 % (5:55 pm)
Barometer29.87 in30.03 in (9:15 pm)29.72 in (3:35 am)
Wind Speed6.4 mph16.1 mph (8:55 am)
Wind Gust21.9 mph (11:15 am)
Weather ElementAverage
Visibility7.9 mi
Wind DirectionSSE (169.4 °)

Weather ElementTotal
Precipitation0.01 in
Heating Degree Days24 (Base 65)
Averaged from 67 records on February 13, 2013
WEATHER CONDITIONS BREAKOUT
WIND DIRECTION BREAKOUT
WEATHER BY HOUR - FEBRUARY 13, 2013
[ °C ]   °F
Local TimeTemperatureDewpointHumidityBarometerVisibilityWind DirectionWind SpeedGust SpeedPrecipitationEventsConditions
12:35 AM44.6 °F42.8 °F93 %29.79 in5.0 miENE (60°)5.8 mphOvercast
12:55 AM44.6 °F42.8 °F93 %29.78 in5.0 miENE (60°)5.8 mphOvercast
1:15 AM44.6 °F42.8 °F93 %29.78 in3.0 miENE (70°)5.8 mphOvercast
1:35 AM44.6 °F42.8 °F93 %29.77 in3.0 miEast (80°)5.8 mphOvercast
1:55 AM44.6 °F42.8 °F93 %29.77 in3.0 miENE (60°)4.6 mphOvercast
2:15 AM44.6 °F42.8 °F93 %29.76 in3.0 miEast (80°)6.9 mphOvercast
2:35 AM44.6 °F42.8 °F93 %29.75 in2.5 miEast (80°)6.9 mphOvercast
3:15 AM44.6 °F42.8 °F93 %29.74 in3.0 miEast (90°)4.6 mphOvercast
3:35 AM44.6 °F42.8 °F93 %29.72 in2.0 miEast (80°)4.6 mphOvercast
3:55 AM44.6 °F42.8 °F93 %29.74 in2.5 miCalmOvercast
4:15 AM44.6 °F42.8 °F93 %29.74 in2.0 miCalmOvercast
4:35 AM44.6 °F42.8 °F93 %29.74 in2.0 miCalmOvercast
4:55 AM44.6 °F42.8 °F93 %29.74 in2.5 miCalm0.01 inOvercast
5:35 AM44.6 °F42.8 °F93 %29.73 in3.0 miCalmOvercast
5:55 AM44.6 °F42.8 °F93 %29.76 in2.5 miCalmOvercast
6:15 AM44.6 °F42.8 °F93 %29.76 in3.0 miCalmOvercast
6:35 AM44.6 °F42.8 °F93 %29.77 in3.0 miSW (220°)4.6 mphOvercast
6:55 AM46.4 °F44.6 °F93 %29.77 in2.5 miSW (230°)5.8 mphOvercast
7:15 AM46.4 °F44.6 °F93 %29.80 in3.0 miSW (230°)5.8 mphOvercast
7:35 AM46.4 °F44.6 °F93 %29.80 in8.0 miWSW (240°)5.8 mphOvercast
7:55 AM46.4 °F44.6 °F93 %29.80 in9.0 miWest (260°)11.5 mph17.3 mphOvercast
8:15 AM46.4 °F44.6 °F93 %29.81 in10.0 miWest (270°)10.4 mphOvercast
8:35 AM46.4 °F44.6 °F93 %29.81 in10.0 miWest (260°)10.4 mphOvercast
8:55 AM46.4 °F42.8 °F87 %29.83 in10.0 miWest (270°)16.1 mphOvercast
9:15 AM46.4 °F42.8 °F87 %29.83 in10.0 miWest (260°)12.7 mphOvercast
9:35 AM46.4 °F42.8 °F87 %29.83 in10.0 miWest (260°)13.8 mph18.4 mphOvercast
9:55 AM46.4 °F39.2 °F76 %29.83 in10.0 miWest (280°)11.5 mph16.1 mphOvercast
10:15 AM46.4 °F39.2 °F76 %29.84 in10.0 miWest (270°)10.4 mphOvercast
10:35 AM46.4 °F39.2 °F76 %29.85 in10.0 miWSW (250°)11.5 mph18.4 mphOvercast
10:55 AM46.4 °F41.0 °F81 %29.85 in10.0 miWest (260°)12.7 mph17.3 mphOvercast
11:15 AM46.4 °F39.2 °F76 %29.86 in10.0 miWest (260°)16.1 mph21.9 mphOvercast
11:35 AM46.4 °F39.2 °F76 %29.87 in10.0 miWest (260°)13.8 mphOvercast
11:55 AM46.4 °F39.2 °F76 %29.85 in10.0 miWSW (250°)15.0 mphOvercast
12:15 PM46.4 °F39.2 °F76 %29.86 in10.0 miWest (260°)9.2 mph18.4 mphOvercast
12:35 PM46.4 °F39.2 °F76 %29.85 in10.0 miWest (260°)9.2 mphOvercast
12:55 PM46.4 °F39.2 °F76 %29.85 in10.0 miWest (270°)11.5 mphOvercast
1:15 PM48.2 °F39.2 °F71 %29.84 in10.0 miWest (280°)10.4 mph17.3 mphOvercast
1:35 PM48.2 °F39.2 °F71 %29.84 in10.0 miWest (270°)10.4 mphOvercast
1:55 PM48.2 °F39.2 °F71 %29.86 in10.0 miWest (280°)8.1 mphOvercast
2:15 PM48.2 °F39.2 °F71 %29.86 in10.0 miWest (280°)12.7 mphOvercast
2:35 PM48.2 °F39.2 °F71 %29.87 in10.0 miWNW (300°)13.8 mph18.4 mphOvercast
3:15 PM46.4 °F37.4 °F71 %29.90 in10.0 miNW (310°)10.4 mphOvercast
3:35 PM44.6 °F35.6 °F71 %29.91 in10.0 miWest (280°)12.7 mph20.7 mphOvercast
3:55 PM44.6 °F35.6 °F71 %29.93 in10.0 miNW (310°)10.4 mph18.4 mphOvercast
4:15 PM44.6 °F35.6 °F71 %29.93 in10.0 miNW (310°)8.1 mphOvercast
4:35 PM44.6 °F35.6 °F71 %29.94 in10.0 miNW (310°)9.2 mphOvercast
4:55 PM44.6 °F35.6 °F71 %29.95 in10.0 miNW (310°)8.1 mphOvercast
5:35 PM42.8 °F35.6 °F76 %29.96 in10.0 miNW (310°)5.8 mphOvercast
5:55 PM42.8 °F33.8 °F70 %29.97 in10.0 miNNW (330°)11.5 mphOvercast
6:15 PM42.8 °F33.8 °F70 %29.97 in10.0 miNW (320°)6.9 mphOvercast
6:35 PM42.8 °F33.8 °F70 %29.98 in10.0 miCalmOvercast
6:55 PM41.0 °F33.8 °F76 %29.98 in10.0 miCalmScattered Clouds
7:15 PM37.4 °F33.8 °F87 %29.98 in10.0 miCalmClear
7:35 PM37.4 °F33.8 °F87 %29.99 in10.0 miCalmClear
7:55 PM35.6 °F33.8 °F93 %29.99 in10.0 miCalmClear
8:15 PM35.6 °F32.0 °F87 %30.00 in10.0 miWNW (290°)3.5 mphClear
8:35 PM33.8 °F30.2 °F87 %30.00 in10.0 miCalmClear
8:55 PM33.8 °F32.0 °F93 %30.02 in9.0 miCalmMostly Cloudy
9:15 PM35.6 °F33.8 °F93 %30.03 in7.0 miWest (270°)4.6 mphOvercast
9:35 PM35.6 °F33.8 °F93 %30.03 in8.0 miWest (270°)4.6 mphOvercast
9:55 PM37.4 °F33.8 °F87 %30.03 in10.0 miWest (260°)3.5 mphOvercast
10:15 PM37.4 °F35.6 °F93 %30.03 in10.0 miCalmOvercast
10:35 PM39.2 °F35.6 °F87 %30.03 in10.0 miWest (280°)3.5 mphOvercast
10:55 PM39.2 °F35.6 °F87 %30.03 in10.0 miCalmOvercast
11:15 PM39.2 °F35.6 °F87 %30.03 in10.0 miCalmOvercast
11:35 PM39.2 °F35.6 °F87 %30.03 in10.0 miCalmOvercast
11:55 PM39.2 °F35.6 °F87 %30.03 in10.0 miCalmOvercast
Hourly data recorded from KGAD, located miles away from Oneonta, Alabama







STORIES FROM OUR PARTNERS